[[{"header":{"parameterUnit":"m.s-1","parameterCategory":1,"la1":30.2991,"la2":30.254,"lo1":-89.0895,"lo2":-89.0444,"dy":0.0017,"dx":0.0017,"nx":28,"ny":28,"refTime":"2025-03-28T03:00:00:Z","depth":0,"parameterNumber":2,"parameterNumberName":"U-component_of_WINDS"},"data":[0,0,0,0,0,0,0,0,0,0,0,0,0,0,0,0,0,0,0,0,0,0,0,0,0,0,0,0,0,0,0,0,0,0,0,0,0,0,0,0,0,0,0,0,0,0,0,0,0,0,0,0,0,0,0,0,0,0,-6.3848,-6.385,0,-6.4037,-6.4039,-6.4041,-6.4047,-6.4045,-6.4043,-6.404,-6.4231,-6.4238,-6.4245,0,0,0,0,0,0,0,0,0,0,0,0,0,-6.3491,-6.3497,-6.3848,-6.385,-6.3852,-6.4036,-6.4039,-6.4041,-6.4047,-6.4045,-6.4042,-6.4039,-6.4229,-6.4237,-6.4246,0,0,0,0,0,0,0,0,0,0,0,0,0,-6.3659,-6.35,-6.3847,-6.3878,-6.3882,-6.4036,-6.4039,-6.4042,-6.4048,-6.4045,-6.4041,-6.4038,-6.4226,-6.4236,-6.4247,-6.4382,0,0,-6.428,-6.4285,0,0,0,0,0,0,0,0,-6.365,-6.3672,-6.3871,-6.3876,-6.3881,-6.4015,-6.3983,-6.4156,-6.4049,-6.3985,-6.404,-6.4036,-6.4162,-6.4177,-6.422,-6.4391,-6.4399,-6.4281,-6.4287,-6.4292,-6.4295,0,0,0,0,0,0,0,-6.3638,-6.3664,-6.3922,-6.3874,-6.388,-6.3881,-6.3902,-6.4016,-6.409,-6.399,-6.3991,-6.4014,-6.4164,-6.421,-6.4225,-6.4402,-6.4281,-6.429,-6.4297,-6.4301,-6.4692,-6.4696,0,0,0,0,0,0,-6.3621,-6.3654,-6.3916,-6.3928,-6.3755,-6.3891,-6.3913,-6.3975,-6.4089,-6.4103,-6.4016,-6.4013,-6.4193,-6.4212,-6.4232,-6.4396,-6.4292,-6.4302,-6.4308,-6.4688,-6.4693,-6.4697,0,0,0,0,0,0,-6.3613,-6.3644,-6.3909,-6.3792,-6.3825,-6.39,-6.397,-6.3981,-6.4027,-6.4109,-6.4122,-6.405,-6.4191,-6.4216,-6.4345,-6.4403,-6.4307,-6.4317,-6.4684,-6.469,-6.4695,-6.4727,0,0,0,0,0,0,-6.3603,-6.3641,-6.3693,-6.3793,-6.3832,-6.4019,-6.3974,-6.3987,-6.4046,-6.4044,-6.4143,-6.4157,-6.419,-6.4328,-6.4355,-6.4416,-6.4325,-6.4679,-6.4687,-6.4693,-6.4721,-6.4734,-6.4744,0,0,0,0,0,-6.359,-6.3694,-6.3696,-6.3728,-6.3899,-6.4022,-6.4045,-6.4082,-6.4051,-6.4103,-6.4156,-6.4154,-6.4393,-6.4342,-6.4372,-6.4437,-6.4675,-6.4684,-6.4693,-6.4716,-6.4731,-6.4744,0,0,0,0,0,0,-6.3598,-6.3708,-6.3711,-6.3851,-6.3927,-6.4023,-6.4091,-6.4097,-6.4183,-6.4177,-6.4219,-6.4242,-6.4369,-6.4416,-6.4357,-6.4573,-6.453,-6.4546,-6.4538,-6.4553,-6.4564,-6.4549,-6.4334,0,0,0,0,0,-6.3617,-6.3709,-6.3799,-6.3914,-6.3953,-6.4015,-6.4071,-6.4093,-6.4174,-6.4206,-6.4268,-6.4346,-6.4438,-6.4498,-6.4588,-6.4729,-6.475,-6.4789,-6.48,-6.4809,-6.4821,-6.4899,-6.4916,-6.4726,-6.4726,-6.4726,0,0,-6.3655,-6.3726,-6.3782,-6.3918,-6.398,-6.4073,-6.4042,-6.4143,-6.4212,-6.4221,-6.4345,-6.4394,-6.4484,-6.4619,-6.4681,-6.4662,-6.4879,-6.482,-6.4827,-6.4834,-6.4909,-6.4927,-6.4943,-6.4732,-6.4731,-6.473,0,0,-6.3773,-6.3837,-6.3939,-6.4002,-6.4097,-6.4138,-6.4163,-6.4259,-6.4292,-6.4418,-6.4426,-6.451,-6.4669,-6.4732,-6.4785,-6.4929,-6.4929,-6.4957,-6.5016,-6.5091,-6.5106,-6.5119,-6.5169,-6.5187,-6.4969,-6.497,-6.497,0,-6.3808,-6.395,-6.399,-6.4091,-6.415,-6.4164,-6.4268,-6.4327,-6.4446,-6.4486,-6.4463,-6.4664,-6.4725,-6.4875,-6.491,-6.4953,-6.4982,-6.4945,-6.51,-6.5114,-6.5127,-6.5176,-6.5194,-6.4972,-6.4972,-6.4972,-6.4971,0,-6.3988,-6.4087,-6.4158,-6.4274,-6.4341,-6.4443,-6.4498,-6.4562,-6.4579,-6.4623,-6.4751,-6.4826,-6.4931,-6.4969,-6.4986,-6.5121,-6.5106,-6.5092,-6.5049,-6.5147,-6.5193,-6.5212,-6.4976,-6.4975,-6.4974,-6.4974,0,0,-6.4114,-6.4252,-6.4277,-6.433,-6.4437,-6.4513,-6.4616,-6.472,-6.4773,-6.4855,-6.4941,-6.5077,-6.5064,-6.5125,-6.515,-6.5216,-6.5324,-6.5193,-6.5196,-6.5213,-6.5476,-6.5485,-6.5506,-6.5326,-6.533,-6.5333,-6.5468,0,-6.4242,-6.4425,-6.4465,-6.4622,-6.4713,-6.4729,-6.4818,-6.4893,-6.4937,-6.502,-6.5069,-6.5163,-6.514,-6.5177,-6.5243,-6.5296,-6.5377,-6.5288,-6.5405,-6.5409,-6.538,-6.553,-6.554,-6.5664,-6.5487,-6.549,-6.5492,0,-6.4415,-6.4502,-6.4669,-6.4764,-6.4804,-6.4883,-6.4982,-6.5062,-6.5147,-6.5175,-6.5243,-6.5261,-6.5368,-6.5322,-6.5469,-6.5407,-6.5458,-6.5492,-6.5498,-6.5508,-6.5455,-6.5543,-6.5705,-6.5723,-6.5521,-6.5519,-6.5517,0,-6.4488,-6.4648,-6.4768,-6.4813,-6.4927,-6.4982,-6.5032,-6.5115,-6.5175,-6.5261,-6.53,-6.5398,-6.5451,-6.5526,-6.557,-6.5532,-6.5713,-6.5671,-6.5738,-6.5737,-6.5773,-6.577,-6.5944,-6.581,-6.5809,-6.5809,-6.5809,0,-6.4626,-6.4726,-6.4802,-6.4876,-6.499,-6.5035,-6.5146,-6.5196,-6.5269,-6.5352,-6.5372,-6.545,-6.5504,-6.5589,-6.5625,-6.5741,-6.5765,-6.5789,-6.5797,-6.5787,-6.5783,-6.5819,-6.581,-6.5814,-6.5813,-6.5812,-6.5811,0,-6.4725,-6.4781,-6.4912,-6.5011,-6.5038,-6.5117,-6.52,-6.5272,-6.5318,-6.5423,-6.545,-6.5521,-6.5622,-6.5675,-6.5801,-6.5825,-6.5955,-6.5959,-6.5926,-6.5929,-6.5992,-6.5985,-6.6193,-6.6222,-6.607,-6.6072,-6.6073,0,-6.4808,-6.4887,-6.4994,-6.5051,-6.5103,-6.5195,-6.5257,-6.5305,-6.5369,-6.5472,-6.5532,-6.5635,-6.5719,-6.5881,-6.5943,-6.604,-6.6045,-6.6111,-6.6059,-6.6046,-6.6044,-6.6038,-6.6045,-6.6119,-6.6121,-6.6122,-6.6123,0,-6.4949,-6.4973,-6.5062,-6.5161,-6.5234,-6.5314,-6.5393,-6.5439,-6.55,-6.557,-6.5675,-6.5741,-6.587,-6.5972,-6.6074,-6.6125,-6.6134,-6.6139,-6.616,-6.6148,-6.6126,-6.6137,-6.5949,-6.6134,-6.6132,-6.6132,-6.6131,-6.6131,-6.5043,-6.5113,-6.5199,-6.5297,-6.5362,-6.5436,-6.5508,-6.5563,-6.5651,-6.5761,-6.5784,-6.5895,-6.5979,-6.6117,-6.6171,-6.6258,-6.6243,-6.6273,-6.628,-6.6287,-6.6289,-6.6114,-6.6277,-6.6276,-6.6276,-6.6276,-6.6276,0,-6.5183,-6.524,-6.533,-6.5441,-6.5518,-6.5522,-6.561,-6.5674,-6.5771,-6.5849,-6.5932,-6.6052,-6.6151,-6.6222,-6.6323,-6.6378,-6.6385,-6.6403,-6.6398,-6.641,-6.6296,-6.6268,-6.6396,-6.6396,-6.6396,-6.6396,-6.6396,-6.6396,-6.5266,-6.5384,-6.5418,-6.557,-6.5626,-6.5734,-6.5784,-6.5852,-6.5914,-6.6048,-6.613,-6.6177,-6.6252,-6.6358,-6.6449,-6.6467,-6.6503,-6.652,-6.6538,-6.6431,-6.6418,-6.6405,-6.6379,-6.6528,-6.6528,-6.6645,-6.6646,-6.6646]},{"header":{"parameterUnit":"m.s-1","parameterCategory":1,"la1":30.2991,"la2":30.254,"lo1":-89.0895,"lo2":-89.0444,"dy":0.0017,"dx":0.0017,"nx":28,"ny":28,"refTime":"2025-03-28T03:00:00:Z","depth":0,"parameterNumber":3,"parameterNumberName":"V-component_of_WINDS"},"data":[0,0,0,0,0,0,0,0,0,0,0,0,0,0,0,0,0,0,0,0,0,0,0,0,0,0,0,0,0,0,0,0,0,0,0,0,0,0,0,0,0,0,0,0,0,0,0,0,0,0,0,0,0,0,0,0,0,0,3.534,3.5342,0,3.5499,3.5501,3.5502,3.5585,3.5585,3.5586,3.5586,3.5746,3.575,3.5754,0,0,0,0,0,0,0,0,0,0,0,0,0,3.5107,3.5111,3.534,3.5342,3.5344,3.5499,3.5501,3.5503,3.5585,3.5585,3.5586,3.5586,3.5745,3.5749,3.5754,0,0,0,0,0,0,0,0,0,0,0,0,0,3.5231,3.5112,3.534,3.5404,3.5411,3.5498,3.5501,3.5503,3.5585,3.5586,3.5586,3.5586,3.5743,3.5749,3.5755,3.579,0,0,3.5774,3.5777,0,0,0,0,0,0,0,0,3.5224,3.524,3.5392,3.54,3.5408,3.5523,3.5477,3.5599,3.5585,3.5519,3.5586,3.5586,3.5671,3.5683,3.5713,3.5797,3.5804,3.5775,3.5778,3.5781,3.5783,0,0,0,0,0,0,0,3.5215,3.5233,3.5403,3.5394,3.5404,3.5424,3.5442,3.5501,3.5592,3.5525,3.5531,3.5549,3.5676,3.5706,3.5717,3.5806,3.5774,3.578,3.5784,3.5786,3.5929,3.5929,0,0,0,0,0,0,3.5197,3.5226,3.5398,3.5408,3.5315,3.5428,3.5448,3.5485,3.5592,3.5608,3.5549,3.5552,3.5696,3.571,3.5723,3.5772,3.5781,3.5787,3.579,3.5929,3.5929,3.5929,0,0,0,0,0,0,3.5191,3.5211,3.5391,3.5318,3.5343,3.5432,3.5473,3.5489,3.552,3.561,3.5626,3.5564,3.5696,3.5714,3.5773,3.5779,3.579,3.5795,3.5929,3.5929,3.5929,3.5869,0,0,0,0,0,0,3.5184,3.5209,3.5223,3.5318,3.5346,3.5439,3.5474,3.5491,3.553,3.5537,3.5628,3.5643,3.5698,3.5763,3.5779,3.5787,3.58,3.5929,3.5929,3.5929,3.5871,3.5867,3.5864,0,0,0,0,0,3.5176,3.5199,3.5223,3.5244,3.5366,3.5439,3.5455,3.5518,3.553,3.5546,3.5604,3.5641,3.5775,3.5769,3.5787,3.5797,3.5929,3.5929,3.5929,3.5872,3.5868,3.5864,0,0,0,0,0,0,3.51,3.5212,3.5241,3.5295,3.5357,3.5453,3.5474,3.5511,3.557,3.5573,3.5648,3.5668,3.572,3.5765,3.5755,3.5837,3.5856,3.586,3.5806,3.5803,3.5799,3.5788,3.5805,0,0,0,0,0,3.509,3.5141,3.5236,3.5274,3.5304,3.5383,3.5417,3.5461,3.5528,3.5554,3.5616,3.5679,3.5736,3.5772,3.5829,3.5878,3.5899,3.5894,3.589,3.5887,3.5889,3.592,3.5919,3.593,3.593,3.593,0,0,3.507,3.5137,3.5164,3.5261,3.5314,3.5365,3.5405,3.5456,3.5494,3.5561,3.5622,3.5669,3.5745,3.5799,3.5826,3.5838,3.5891,3.5887,3.5884,3.5888,3.592,3.5919,3.5918,3.593,3.593,3.593,0,0,3.5059,3.5114,3.5154,3.5206,3.5287,3.534,3.5349,3.544,3.5475,3.5536,3.5588,3.5634,3.573,3.5782,3.5821,3.5831,3.5868,3.5848,3.5829,3.5858,3.5857,3.5857,3.5862,3.5862,3.585,3.585,3.585,0,3.5023,3.5101,3.5169,3.5218,3.526,3.5324,3.5365,3.5412,3.5507,3.5534,3.5546,3.5669,3.5724,3.5792,3.5795,3.5824,3.5837,3.5838,3.5852,3.5852,3.5853,3.5859,3.586,3.5847,3.5847,3.5847,3.5848,0,3.5054,3.5108,3.513,3.5221,3.5265,3.5309,3.5384,3.542,3.546,3.5511,3.5574,3.5642,3.5715,3.5735,3.5773,3.5809,3.5814,3.5838,3.5858,3.5848,3.5855,3.5857,3.5843,3.5844,3.5844,3.5845,0,0,3.4999,3.5128,3.5136,3.5179,3.5272,3.5315,3.5363,3.5435,3.5466,3.5529,3.5571,3.5651,3.5675,3.5719,3.5764,3.5789,3.5795,3.5811,3.5814,3.5807,3.584,3.5822,3.5824,3.582,3.582,3.5821,3.5834,0,3.5002,3.5092,3.5155,3.522,3.5271,3.5333,3.5375,3.5437,3.5487,3.5537,3.5592,3.5648,3.5674,3.5702,3.573,3.5788,3.5803,3.5788,3.586,3.5862,3.584,3.5827,3.5808,3.5817,3.5837,3.5838,3.5838,0,3.5017,3.508,3.5151,3.5241,3.5265,3.5301,3.5374,3.5421,3.5493,3.5527,3.5577,3.5624,3.5677,3.5693,3.5768,3.5756,3.579,3.5823,3.5825,3.5835,3.585,3.5837,3.5822,3.5823,3.5842,3.5842,3.5842,0,3.4972,3.5074,3.513,3.5164,3.5271,3.5295,3.534,3.5413,3.5453,3.5516,3.5543,3.561,3.5648,3.5699,3.5763,3.5768,3.5832,3.5852,3.5862,3.5861,3.5874,3.5872,3.5864,3.5893,3.5893,3.5893,3.5893,0,3.4969,3.501,3.5111,3.5146,3.5194,3.5266,3.5311,3.5361,3.5426,3.5471,3.5528,3.557,3.5651,3.5703,3.5753,3.5808,3.5824,3.5854,3.5867,3.5849,3.5846,3.5873,3.5874,3.5893,3.5893,3.5893,3.5893,0,3.4927,3.4996,3.5062,3.5157,3.5182,3.5214,3.5296,3.5332,3.5385,3.5441,3.5459,3.5542,3.5606,3.5675,3.5761,3.5795,3.5848,3.5865,3.5824,3.5831,3.5838,3.5837,3.5848,3.5854,3.5877,3.5877,3.5876,0,3.4921,3.4954,3.5054,3.5089,3.5133,3.5189,3.5231,3.5303,3.5344,3.5429,3.5455,3.5523,3.5582,3.568,3.5748,3.5815,3.5835,3.5835,3.5846,3.5828,3.5837,3.5835,3.5839,3.5831,3.5831,3.583,3.583,0,3.4904,3.4937,3.4995,3.5066,3.5114,3.5173,3.5234,3.5259,3.5344,3.5387,3.5453,3.5499,3.5588,3.5655,3.573,3.5777,3.5818,3.5826,3.5832,3.5815,3.579,3.5805,3.5815,3.5825,3.5826,3.5826,3.5826,3.5827,3.488,3.4914,3.499,3.5053,3.5107,3.5163,3.5202,3.5261,3.5318,3.5396,3.5435,3.5502,3.5574,3.568,3.5725,3.5779,3.5791,3.5799,3.5802,3.5803,3.5799,3.5781,3.5792,3.5792,3.5793,3.5793,3.5793,0,3.4867,3.492,3.4977,3.5062,3.5112,3.5147,3.5216,3.5256,3.5314,3.5378,3.5435,3.5512,3.5578,3.5652,3.5722,3.575,3.5771,3.5767,3.5766,3.5776,3.5783,3.5772,3.5749,3.5749,3.5749,3.5749,3.5749,3.5749,3.4866,3.4925,3.4967,3.5053,3.5105,3.5171,3.5208,3.5261,3.5313,3.5397,3.5452,3.55,3.5569,3.5645,3.5707,3.5727,3.5751,3.5741,3.5766,3.5772,3.5775,3.5779,3.5768,3.5745,3.5745,3.5755,3.5755,3.5755]}]]